Location: ??????
(41.3164°N, 22.6615°E)
Time: 21:45:19
(UTC+00:00)

SL-16 R/B - Pass Details

Date: 16 October 2021
Orbit: 842 x 846 km, 71.0° (Epoch: 29 November)

Event Time Altitude Azimuth Distance (km) Brightness Sun altitude
Rises 18:02:16 0° 199° (SSW) 3,384 5.4 -26.1°
Reaches altitude 10° 18:04:42 10° 198° (SSW) 2,453 4.7 -26.6°
Enters shadow 18:09:21 62° 184° (S) 949 2.3 -27.4°
